Home > Weather > Evansville > Past weeks

Flag for USA Weather for the Past 2 Weeks in Evansville, Indiana, USA

Now
62 °F

More clouds than sun.


Feels Like: 62 °F
Forecast: 51 / 63 °F
Wind: 10 mph from North

Location: Evansville Regional Airport

Current Time: May 3, 2016 at 1:33:00 PM

Latest Report: May 3, 2016 at 12:54 PM


Visibility: 10 mi

Pressure: 29.97 "Hg

Humidity: 54%

Dew Point: 45 °F

Location of EvansvilleLocation

Historic Weather in Evansville — Graph

°F

Evansville Temperature Yesterday

Maximum temperature yesterday: 62 °F (at 3:54 PM)
Minimum temperature yesterday: 54 °F (at 4:54 AM)
Average temperature yesterday: 58 °F

High & Low Weather Summary for the Past Weeks

 TemperatureHumidityPressure
High83 °F (Apr 26, 1:54 PM)100% (Apr 22, 6:54 AM)30.31 "Hg (Apr 22, 6:54 AM)
Low44 °F (Apr 24, 5:54 AM)22% (Apr 19, 12:54 PM)29.70 "Hg (Apr 27, 4:54 PM)
Average64 °F72%29.95 "Hg
* Reported Apr 18 11:54 AM — May 3 11:54 AM, Evansville, Weather by CustomWeather, © 2016

Note: Actual official high and low records may vary slightly from our data, if they occured in-between our weather recording intervals... More about our weather records

Advertising

Evansville Weather History for the Previous 24 Hours

Scroll right to see more
 ConditionsComfort  
Time TempWeatherWind HumidityBarometerVisibility
11:54 AM
Tue, May 3
59 °FMore clouds than sun.7 mph58%29.98 "Hg10 mi
10:54 AM59 °FPartly sunny.9 mph62%29.99 "Hg10 mi
9:54 AM59 °FScattered clouds.9 mph60%29.99 "Hg10 mi
8:54 AM56 °FScattered clouds.12 mph67%29.99 "Hg10 mi
7:54 AM55 °FSunny.8 mph80%29.98 "Hg10 mi
6:54 AM52 °FSunny.5 mph89%29.97 "Hg8 mi
5:54 AM51 °FSunny.5 mph89%29.96 "Hg9 mi
4:54 AM53 °FOvercast.5 mph86%29.95 "Hg10 mi
3:54 AM53 °FOvercast.6 mph86%29.95 "Hg10 mi
2:54 AM54 °FOvercast.5 mph83%29.95 "Hg10 mi
1:54 AM54 °FOvercast.No wind83%29.96 "Hg10 mi
12:54 AM55 °FOvercast.5 mph80%29.98 "Hg10 mi
11:54 PM
Mon, May 2
55 °FOvercast.No wind80%29.99 "Hg10 mi
10:54 PM56 °FOvercast.5 mph77%30.00 "Hg10 mi
9:54 PM57 °FOvercast.3 mph74%30.00 "Hg10 mi
8:54 PM57 °FMostly cloudy.3 mph74%29.98 "Hg10 mi
7:54 PM57 °FOvercast.5 mph72%29.97 "Hg10 mi
6:54 PM58 °FOvercast.5 mph70%29.97 "Hg10 mi
5:54 PM59 °FOvercast.10 mph69%29.96 "Hg10 mi
4:54 PM60 °FPartly sunny.8 mph69%29.96 "Hg10 mi
3:54 PM62 °FMore clouds than sun.8 mph67%29.96 "Hg10 mi
2:54 PM61 °FMostly cloudy.9 mph70%29.98 "Hg10 mi
1:54 PM61 °FOvercast.5 mph67%29.99 "Hg10 mi
Weather by CustomWeather, © 2016

See weather overviewHow to use our weather pages